ROMMA est une association bénévole à but non lucratif. Votre soutien est indispensable : ADHERER à ROMMA ou FAIRE un DON

Taninges - (74, Haute-Savoie)

Vallée du Giffre (635 m)   Longitude: 06° 35' 38" E   Latitude: 46° 06' 21" N Station romma n°98
 

Détail journalier du     <<     >>

Température Humidité Pression Vent Dir Rafale Dir. rafale Ensol.
Heure (°C) (%) (hPa) (km/h) (km/h) (min)
01:00 13.59310161SSO5SSO0
02:00 12.694101605S0
03:00 12.19410161SO5SO0
04:00 11.89510161E5S0
05:00 11.396101603E0
06:00 11.19510171ESE5ESE0
07:00 11.596101703ESE0
08:00 12.39710181SO3SO25
09:00 14.49510181SE5SO40
10:00 17.78210173SE6OSO40
11:00 21.77010162O6O50
12:00 23.96510164OSO13OSO55
13:00 25.35910166OSO11SO30
14:00 26.55610155SSO15SO60
15:00 25.45910157OSO23SSO0
16:00 25.66110156OSO16OSO0
17:00 25.96010153OSO8OSO0
18:00 25.36510142SO6SSO0
19:00 24.37110151ENE5ENE0
20:00 21.98110152ENE8ENE0
21:00 19.48810161E5E0
22:00 19.18910183E16NE0
23:00 18.78710188E23ENE0
minuit 17.49110185E15ENE0

Graphique du 27-08-2019

 

Serveur OMMA